Location: ????? ????
(37.9717°N, 23.4051°E)
Time: 12:29:31
(UTC+00:00)

CZ-4C R/B - Pass Details

Date: 18 April 2024
Orbit: 530 x 1463 km, 63.4° (Epoch: 17 May)

Event Time Altitude Azimuth Distance (km) Brightness Sun altitude
Rises 18:45:14 0° 335° (NNW) 3,747 6.5 -18.9°
Reaches altitude 10° 18:48:17 10° 349° (N) 2,949 5.6 -19.4°
Maximum altitude 18:53:59 24° 42° (NE) 2,302 4.3 -20.3°
Enters shadow 18:57:47 18° 78° (ENE) 2,788 4.5 -20.9°
